| time (UTC) | temp F | wind direction | speed MPH | gust MPH | rain 1hr in | rain 24hr in | rain mn in | humidity % | barometer mb |
| 20260510044526 | 58 | 180 | 2.0 | 7.0 | 0.00 | 0.00 | 0.00 | 75 | 1015.0 |
| 20260510044006 | 58 | 214 | 2.0 | 3.0 | 0.00 | 0.00 | 0.00 | 75 | 1014.9 |
| 20260510043506 | 57 | 219 | 2.0 | 4.0 | 0.00 | 0.00 | 0.00 | 74 | 1015.0 |
| 20260510043016 | 57 | 236 | 1.0 | 4.0 | 0.00 | 0.00 | 0.00 | 74 | 1014.8 |
| 20260510042503 | 56 | 235 | 3.0 | 4.0 | 0.00 | 0.00 | 0.00 | 74 | 1014.6 |
| 20260510042003 | 56 | 229 | 3.0 | 4.0 | 0.00 | 0.00 | 0.00 | 74 | 1014.7 |
| 20260510041518 | 55 | 235 | 3.0 | 4.0 | 0.00 | 0.00 | 0.00 | 75 | 1014.7 |
| 20260510041004 | 55 | 240 | 2.0 | 4.0 | 0.00 | 0.00 | 0.00 | 75 | 1014.7 |
| 20260510040507 | 55 | 234 | 3.0 | 4.0 | 0.00 | 0.00 | 0.00 | 74 | 1014.7 |
| 20260510040014 | 55 | 229 | 3.0 | 4.0 | 0.00 | 0.00 | 0.00 | 74 | 1014.7 |
| 20260510035505 | 55 | 234 | 3.0 | 4.0 | 0.00 | 0.00 | 0.00 | 74 | 1014.6 |
| 20260510035004 | 55 | 222 | 3.0 | 4.0 | 0.00 | 0.00 | 0.00 | 74 | 1014.6 |
| 20260510034512 | 55 | 231 | 3.0 | 4.0 | 0.00 | 0.00 | 0.00 | 74 | 1014.6 |
| 20260510034006 | 55 | 234 | 3.0 | 3.0 | 0.00 | 0.00 | 0.00 | 74 | 1014.6 |
| 20260510033505 | 55 | 232 | 3.0 | 3.0 | 0.00 | 0.00 | 0.00 | 74 | 1014.5 |
| 20260510033014 | 56 | 229 | 3.0 | 3.0 | 0.00 | 0.00 | 0.00 | 73 | 1014.4 |
| 20260510032508 | 56 | 229 | 3.0 | 3.0 | 0.00 | 0.00 | 0.00 | 72 | 1014.3 |
| 20260510032007 | 56 | 231 | 2.0 | 3.0 | 0.00 | 0.00 | 0.00 | 71 | 1014.3 |
| 20260510031518 | 56 | 233 | 2.0 | 3.0 | 0.00 | 0.00 | 0.00 | 70 | 1014.2 |
| 20260510031008 | 57 | 236 | 2.0 | 3.0 | 0.00 | 0.00 | 0.00 | 69 | 1014.2 |
| 20260510030506 | 57 | 232 | 2.0 | 3.0 | 0.00 | 0.00 | 0.00 | 69 | 1014.1 |
| 20260510030016 | 57 | 232 | 2.0 | 3.0 | 0.00 | 0.00 | 0.00 | 68 | 1014.1 |
| 20260510025506 | 58 | 236 | 3.0 | 3.0 | 0.00 | 0.00 | 0.00 | 68 | 1014.1 |
| 20260510025006 | 58 | 240 | 2.0 | 4.0 | 0.00 | 0.00 | 0.00 | 66 | 1014.0 |
| 20260510024518 | 59 | 230 | 3.0 | 4.0 | 0.00 | 0.00 | 0.00 | 65 | 1014.0 |
| 20260510024005 | 59 | 221 | 1.0 | 2.0 | 0.00 | 0.00 | 0.00 | 64 | 1013.9 |
| 20260510023506 | 60 | 205 | 1.0 | 3.0 | 0.00 | 0.01 | 0.00 | 60 | 1013.8 |
| 20260510023016 | 60 | 227 | 2.0 | 3.0 | 0.00 | 0.02 | 0.00 | 63 | 1013.7 |
| 20260510022510 | 61 | 231 | 2.0 | 3.0 | 0.00 | 0.03 | 0.00 | 62 | 1013.6 |
| 20260510022007 | 61 | 225 | 1.0 | 2.0 | 0.00 | 0.04 | 0.00 | 57 | 1013.4 |
| 20260510021506 | 61 | 232 | 1.0 | 2.0 | 0.00 | 0.05 | 0.00 | 59 | 1013.3 |
| 20260510021002 | 61 | 230 | 1.0 | 3.0 | 0.00 | 0.07 | 0.00 | 60 | 1013.2 |
| 20260510020509 | 61 | 230 | 2.0 | 3.0 | 0.00 | 0.09 | 0.00 | 60 | 1013.1 |
| 20260510020004 | 62 | 225 | 2.0 | 2.0 | 0.00 | 0.09 | 0.00 | 58 | 1013.0 |
| 20260510015507 | 63 | 225 | 2.0 | 3.0 | 0.00 | 0.09 | 0.00 | 56 | 1012.9 |
| 20260510015003 | 63 | 234 | 2.0 | 3.0 | 0.00 | 0.09 | 0.00 | 56 | 1012.7 |
| 20260510014509 | 64 | 234 | 2.0 | 3.0 | 0.00 | 0.09 | 0.00 | 54 | 1012.8 |
| 20260510014005 | 65 | 234 | 2.0 | 3.0 | 0.00 | 0.10 | 0.00 | 51 | 1013.0 |
| 20260510013506 | 66 | 221 | 2.0 | 2.0 | 0.00 | 0.10 | 0.00 | 49 | 1013.0 |
| 20260510013014 | 67 | 292 | 1.0 | 2.0 | 0.00 | 0.10 | 0.00 | 48 | 1012.8 |
| 20260510012506 | 68 | 352 | 0.0 | 2.0 | 0.00 | 0.10 | 0.00 | 46 | 1012.8 |
| 20260510012007 | 69 | 352 | 0.0 | 2.0 | 0.00 | 0.10 | 0.00 | 46 | 1012.8 |
| 20260510011533 | 70 | 352 | 0.0 | 2.0 | 0.00 | 0.10 | 0.00 | 44 | 1012.8 |
| 20260510011006 | 70 | 324 | 0.0 | 2.0 | 0.00 | 0.10 | 0.00 | 42 | 1012.7 |
| 20260510010502 | 71 | 324 | 0.0 | 2.0 | 0.00 | 0.10 | 0.00 | 43 | 1012.6 |
| 20260510010004 | 71 | 323 | 0.0 | 2.0 | 0.00 | 0.10 | 0.00 | 42 | 1012.6 |
| 20260510005503 | 72 | 318 | 0.0 | 2.0 | 0.00 | 0.10 | 0.00 | 41 | 1012.5 |
| 20260510005004 | 72 | 318 | 0.0 | 2.0 | 0.00 | 0.10 | 0.00 | 41 | 1012.5 |
| 20260510004509 | 72 | 318 | 0.0 | 2.0 | 0.00 | 0.10 | 0.00 | 40 | 1012.4 |
| 20260510004005 | 72 | 360 | 0.0 | 2.0 | 0.00 | 0.10 | 0.00 | 40 | 1012.3 |
| 20260510003503 | 73 | 360 | 0.0 | 2.0 | 0.00 | 0.10 | 0.00 | 42 | 1012.2 |
| 20260510003011 | 73 | 360 | 1.0 | 2.0 | 0.00 | 0.10 | 0.00 | 40 | 1012.3 |
| 20260510002507 | 73 | 193 | 0.0 | 2.0 | 0.00 | 0.10 | 0.00 | 40 | 1012.4 |
| 20260510002006 | 73 | 67 | 0.0 | 2.0 | 0.00 | 0.10 | 0.00 | 39 | 1012.4 |
| 20260510001514 | 73 | 52 | 1.0 | 3.0 | 0.00 | 0.10 | 0.00 | 38 | 1012.4 |
| 20260510001006 | 74 | 71 | 1.0 | 3.0 | 0.00 | 0.10 | 0.00 | 38 | 1012.3 |
| 20260510000506 | 74 | 120 | 2.0 | 3.0 | 0.00 | 0.10 | 0.00 | 36 | 1012.3 |
| 20260510000041 | 74 | 64 | 1.0 | 3.0 | 0.00 | 0.10 | 0.00 | 37 | 1012.2 |
| 20260509235510 | 74 | 62 | 1.0 | 3.0 | 0.00 | 0.10 | 0.00 | 37 | 1012.0 |
| 20260509235003 | 75 | 78 | 1.0 | 6.0 | 0.00 | 0.10 | 0.00 | 37 | 1012.1 |
| 20260509234504 | 75 | 82 | 2.0 | 6.0 | 0.00 | 0.10 | 0.00 | 36 | 1012.1 |
| 20260509234005 | 75 | 53 | 1.0 | 4.0 | 0.00 | 0.10 | 0.00 | 37 | 1012.2 |
| 20260509233507 | 75 | 56 | 2.0 | 4.0 | 0.00 | 0.10 | 0.00 | 34 | 1012.2 |
| 20260509233007 | 75 | 76 | 2.0 | 5.0 | 0.00 | 0.10 | 0.00 | 34 | 1012.3 |
| 20260509232503 | 76 | 53 | 2.0 | 5.0 | 0.00 | 0.10 | 0.00 | 35 | 1012.4 |
| 20260509232004 | 76 | 49 | 2.0 | 4.0 | 0.00 | 0.10 | 0.00 | 37 | 1012.4 |
| 20260509231512 | 76 | 78 | 2.0 | 4.0 | 0.00 | 0.10 | 0.00 | 35 | 1012.3 |
| 20260509231005 | 76 | 112 | 2.0 | 5.0 | 0.00 | 0.10 | 0.00 | 34 | 1012.1 |
| 20260509230506 | 76 | 91 | 3.0 | 5.0 | 0.00 | 0.10 | 0.00 | 37 | 1012.1 |
| 20260509230019 | 76 | 66 | 2.0 | 6.0 | 0.00 | 0.10 | 0.00 | 36 | 1012.2 |
| 20260509225507 | 76 | 55 | 3.0 | 6.0 | 0.00 | 0.10 | 0.00 | 34 | 1012.1 |
| 20260509225006 | 77 | 23 | 4.0 | 6.0 | 0.00 | 0.10 | 0.00 | 35 | 1012.1 |
| 20260509224521 | 78 | 39 | 2.0 | 5.0 | 0.00 | 0.10 | 0.00 | 36 | 1012.0 |
| 20260509224007 | 78 | 119 | 3.0 | 5.0 | 0.00 | 0.10 | 0.00 | 32 | 1012.0 |
| 20260509223505 | 79 | 92 | 2.0 | 4.0 | 0.00 | 0.10 | 0.00 | 32 | 1012.1 |
| 20260509223008 | 79 | 5 | 0.0 | 3.0 | 0.00 | 0.10 | 0.00 | 33 | 1012.1 |
| 20260509222509 | 78 | 248 | 1.0 | 3.0 | 0.00 | 0.10 | 0.00 | 29 | 1012.1 |
| 20260509222005 | 78 | 220 | 1.0 | 3.0 | 0.00 | 0.10 | 0.00 | 32 | 1012.1 |
| 20260509221511 | 78 | 325 | 1.0 | 3.0 | 0.00 | 0.10 | 0.00 | 32 | 1012.2 |
| 20260509221004 | 78 | 279 | 0.0 | 3.0 | 0.00 | 0.10 | 0.00 | 32 | 1012.2 |
| 20260509220503 | 78 | 167 | 2.0 | 5.0 | 0.00 | 0.10 | 0.00 | 31 | 1012.1 |
| 20260509220025 | 78 | 360 | 3.0 | 5.0 | 0.00 | 0.10 | 0.00 | 34 | 1012.2 |
| 20260509215506 | 79 | 5 | 0.0 | 4.0 | 0.00 | 0.10 | 0.00 | 35 | 1012.3 |
| 20260509215015 | 78 | 194 | 0.0 | 4.0 | 0.00 | 0.10 | 0.00 | 30 | 1012.3 |
| 20260509214528 | 78 | 80 | 2.0 | 4.0 | 0.00 | 0.10 | 0.00 | 32 | 1012.3 |
| 20260509214006 | 77 | 53 | 0.0 | 5.0 | 0.00 | 0.10 | 0.00 | 36 | 1012.3 |
| 20260509213507 | 77 | 57 | 2.0 | 5.0 | 0.00 | 0.10 | 0.00 | 32 | 1012.3 |
| 20260509213029 | 77 | 83 | 2.0 | 5.0 | 0.00 | 0.10 | 0.00 | 35 | 1012.4 |
| 20260509212507 | 77 | 125 | 2.0 | 6.0 | 0.00 | 0.10 | 0.00 | 32 | 1012.4 |
| 20260509212007 | 77 | 85 | 2.0 | 6.0 | 0.00 | 0.10 | 0.00 | 36 | 1012.3 |
| 20260509211517 | 77 | 110 | 4.0 | 6.0 | 0.00 | 0.10 | 0.00 | 37 | 1012.4 |
| 20260509211004 | 77 | 205 | 2.0 | 5.0 | 0.00 | 0.10 | 0.00 | 32 | 1012.5 |
| 20260509210504 | 77 | 90 | 4.0 | 6.0 | 0.00 | 0.10 | 0.00 | 33 | 1012.5 |
| 20260509210017 | 77 | 123 | 3.0 | 10.0 | 0.00 | 0.10 | 0.00 | 33 | 1012.6 |
| 20260509205504 | 77 | 78 | 4.0 | 10.0 | 0.00 | 0.10 | 0.00 | 34 | 1012.7 |
| 20260509205006 | 77 | 90 | 4.0 | 7.0 | 0.00 | 0.10 | 0.00 | 33 | 1012.8 |
| 20260509204535 | 77 | 148 | 2.0 | 6.0 | 0.00 | 0.10 | 0.00 | 34 | 1012.7 |
| 20260509204012 | 77 | 84 | 2.0 | 6.0 | 0.00 | 0.10 | 0.00 | 35 | 1012.8 |
| 20260509203511 | 77 | 109 | 2.0 | 8.0 | 0.00 | 0.10 | 0.00 | 35 | 1012.8 |
| 20260509203027 | 77 | 167 | 2.0 | 10.0 | 0.00 | 0.10 | 0.00 | 37 | 1012.9 |
| 20260509202509 | 77 | 71 | 4.0 | 10.0 | 0.00 | 0.10 | 0.00 | 36 | 1012.8 |
| 20260509202012 | 77 | 161 | 2.0 | 7.0 | 0.00 | 0.10 | 0.00 | 35 | 1012.8 |
| 20260509201529 | 76 | 75 | 2.0 | 8.0 | 0.00 | 0.10 | 0.00 | 31 | 1012.8 |
| 20260509201004 | 77 | 96 | 3.0 | 8.0 | 0.00 | 0.10 | 0.00 | 33 | 1012.9 |
| 20260509200514 | 77 | 179 | 1.0 | 10.0 | 0.00 | 0.10 | 0.00 | 38 | 1012.9 |
| 20260509200011 | 77 | 149 | 4.0 | 10.0 | 0.00 | 0.10 | 0.00 | 31 | 1013.0 |
| 20260509195508 | 77 | 57 | 1.0 | 6.0 | 0.00 | 0.10 | 0.00 | 32 | 1013.0 |
| 20260509195007 | 77 | 63 | 3.0 | 6.0 | 0.00 | 0.10 | 0.00 | 37 | 1013.2 |
| 20260509194528 | 77 | 33 | 1.0 | 8.0 | 0.00 | 0.10 | 0.00 | 34 | 1013.2 |
| 20260509194011 | 76 | 167 | 1.0 | 11.0 | 0.00 | 0.10 | 0.00 | 37 | 1013.2 |
| 20260509193508 | 76 | 38 | 5.0 | 11.0 | 0.00 | 0.10 | 0.00 | 32 | 1013.2 |
| 20260509193026 | 76 | 54 | 4.0 | 9.0 | 0.00 | 0.10 | 0.00 | 36 | 1013.3 |
| 20260509192511 | 76 | 38 | 2.0 | 9.0 | 0.00 | 0.10 | 0.00 | 35 | 1013.3 |
| 20260509192010 | 76 | 55 | 2.0 | 7.0 | 0.00 | 0.10 | 0.00 | 37 | 1013.3 |
| 20260509191529 | 76 | 162 | 3.0 | 10.0 | 0.00 | 0.10 | 0.00 | 34 | 1013.3 |
| 20260509191008 | 76 | 57 | 3.0 | 10.0 | 0.00 | 0.10 | 0.00 | 31 | 1013.3 |
| 20260509190508 | 76 | 28 | 6.0 | 9.0 | 0.00 | 0.10 | 0.00 | 34 | 1013.3 |
| 20260509190011 | 76 | 45 | 2.0 | 7.0 | 0.00 | 0.10 | 0.00 | 31 | 1013.4 |
| 20260509185505 | 76 | 115 | 2.0 | 5.0 | 0.00 | 0.10 | 0.00 | 32 | 1013.4 |
| 20260509185007 | 76 | 105 | 1.0 | 8.0 | 0.00 | 0.10 | 0.00 | 31 | 1013.4 |
| 20260509184522 | 75 | 317 | 2.0 | 8.0 | 0.00 | 0.10 | 0.00 | 31 | 1013.5 |
| 20260509184007 | 75 | 29 | 2.0 | 6.0 | 0.00 | 0.10 | 0.00 | 37 | 1013.4 |
| 20260509183507 | 75 | 296 | 3.0 | 8.0 | 0.00 | 0.10 | 0.00 | 31 | 1013.5 |
| 20260509183020 | 75 | 360 | 2.0 | 10.0 | 0.00 | 0.10 | 0.00 | 32 | 1013.4 |
| 20260509182508 | 75 | 350 | 4.0 | 10.0 | 0.00 | 0.10 | 0.00 | 33 | 1013.4 |
| 20260509182015 | 75 | 74 | 3.0 | 7.0 | 0.00 | 0.10 | 0.00 | 35 | 1013.4 |
| 20260509181523 | 75 | 37 | 1.0 | 9.0 | 0.00 | 0.10 | 0.00 | 38 | 1013.4 |
| 20260509181011 | 75 | 360 | 5.0 | 9.0 | 0.00 | 0.10 | 0.00 | 38 | 1013.5 |
| 20260509180509 | 75 | 45 | 3.0 | 6.0 | 0.00 | 0.10 | 0.00 | 38 | 1013.4 |
| 20260509180028 | 75 | 31 | 2.0 | 6.0 | 0.00 | 0.10 | 0.00 | 43 | 1013.4 |
| 20260509175510 | 74 | 70 | 1.0 | 6.0 | 0.00 | 0.10 | 0.00 | 40 | 1013.3 |
| 20260509175012 | 74 | 347 | 3.0 | 9.0 | 0.00 | 0.10 | 0.00 | 40 | 1013.3 |
| 20260509174514 | 74 | 92 | 1.0 | 9.0 | 0.00 | 0.10 | 0.00 | 35 | 1013.3 |
| 20260509174005 | 74 | 306 | 5.0 | 9.0 | 0.00 | 0.10 | 0.00 | 35 | 1013.4 |
| 20260509173505 | 74 | 352 | 5.0 | 9.0 | 0.00 | 0.10 | 0.00 | 37 | 1013.5 |
| 20260509173002 | 74 | 67 | 5.0 | 9.0 | 0.00 | 0.10 | 0.00 | 36 | 1013.3 |
| 20260509172503 | 74 | 9 | 2.0 | 6.0 | 0.00 | 0.10 | 0.00 | 37 | 1013.5 |
| 20260509172003 | 74 | 281 | 1.0 | 7.0 | 0.00 | 0.10 | 0.00 | 34 | 1013.6 |
| 20260509171504 | 74 | 232 | 5.0 | 7.0 | 0.00 | 0.10 | 0.00 | 37 | 1013.7 |
| 20260509171003 | 74 | 167 | 1.0 | 8.0 | 0.00 | 0.10 | 0.00 | 37 | 1013.8 |
| 20260509170504 | 74 | 112 | 3.0 | 8.0 | 0.00 | 0.10 | 0.00 | 39 | 1013.8 |
| 20260509170008 | 73 | 260 | 2.0 | 6.0 | 0.00 | 0.10 | 0.00 | 33 | 1013.9 |
| 20260509165502 | 73 | 296 | 3.0 | 8.0 | 0.00 | 0.10 | 0.00 | 31 | 1013.9 |
| 20260509165004 | 73 | 92 | 3.0 | 8.0 | 0.00 | 0.10 | 0.00 | 36 | 1013.8 |
| 20260509164512 | 73 | 348 | 5.0 | 8.0 | 0.00 | 0.10 | 0.00 | 34 | 1013.8 |
| 20260509164008 | 73 | 13 | 1.0 | 6.0 | 0.00 | 0.10 | 0.00 | 42 | 1013.7 |
| 20260509163506 | 73 | 5 | 4.0 | 6.0 | 0.00 | 0.10 | 0.00 | 35 | 1013.8 |
| 20260509163025 | 73 | 57 | 3.0 | 6.0 | 0.00 | 0.10 | 0.00 | 44 | 1013.8 |
| 20260509162509 | 73 | 123 | 0.0 | 5.0 | 0.00 | 0.10 | 0.00 | 49 | 1013.8 |
| 20260509162010 | 72 | 341 | 2.0 | 8.0 | 0.00 | 0.10 | 0.00 | 54 | 1013.7 |
| 20260509161503 | 72 | 20 | 3.0 | 8.0 | 0.00 | 0.10 | 0.00 | 48 | 1013.6 |
| 20260509161003 | 72 | 15 | 2.0 | 4.0 | 0.00 | 0.10 | 0.00 | 49 | 1013.7 |
| 20260509160504 | 72 | 330 | 1.0 | 4.0 | 0.00 | 0.10 | 0.00 | 50 | 1013.7 |
| 20260509160011 | 71 | 203 | 1.0 | 5.0 | 0.00 | 0.10 | 0.00 | 54 | 1013.7 |
| 20260509155501 | 71 | 286 | 3.0 | 5.0 | 0.00 | 0.10 | 0.00 | 52 | 1013.6 |
| 20260509155002 | 71 | 21 | 2.0 | 4.0 | 0.00 | 0.10 | 0.00 | 57 | 1013.6 |
| 20260509154512 | 71 | 307 | 2.0 | 7.0 | 0.00 | 0.10 | 0.00 | 60 | 1013.5 |
| 20260509154008 | 70 | 232 | 2.0 | 7.0 | 0.00 | 0.10 | 0.00 | 58 | 1013.5 |
| 20260509153502 | 70 | 220 | 2.0 | 6.0 | 0.00 | 0.10 | 0.00 | 64 | 1013.4 |
| 20260509153029 | 70 | 288 | 3.0 | 5.0 | 0.00 | 0.10 | 0.00 | 56 | 1013.5 |
| 20260509152504 | 69 | 302 | 2.0 | 5.0 | 0.00 | 0.10 | 0.00 | 60 | 1013.5 |
| 20260509152013 | 69 | 319 | 2.0 | 7.0 | 0.00 | 0.10 | 0.00 | 65 | 1013.5 |
| 20260509151521 | 69 | 232 | 3.0 | 7.0 | 0.00 | 0.10 | 0.00 | 65 | 1013.5 |
| 20260509151006 | 68 | 302 | 2.0 | 6.0 | 0.00 | 0.10 | 0.00 | 68 | 1013.5 |
| 20260509150510 | 68 | 298 | 2.0 | 7.0 | 0.00 | 0.10 | 0.00 | 67 | 1013.5 |
| 20260509150003 | 68 | 232 | 4.0 | 7.0 | 0.00 | 0.10 | 0.00 | 70 | 1013.4 |
| 20260509145503 | 67 | 245 | 2.0 | 6.0 | 0.00 | 0.10 | 0.00 | 72 | 1013.5 |
| 20260509145015 | 67 | 281 | 3.0 | 6.0 | 0.00 | 0.10 | 0.00 | 68 | 1013.4 |
| 20260509144522 | 67 | 267 | 3.0 | 6.0 | 0.00 | 0.10 | 0.00 | 70 | 1013.4 |
| 20260509144007 | 67 | 291 | 3.0 | 7.0 | 0.00 | 0.10 | 0.00 | 71 | 1013.4 |
| 20260509143503 | 66 | 267 | 3.0 | 7.0 | 0.00 | 0.10 | 0.00 | 71 | 1013.4 |
| 20260509143018 | 66 | 232 | 3.0 | 7.0 | 0.00 | 0.10 | 0.00 | 74 | 1013.4 |
| 20260509142508 | 65 | 317 | 3.0 | 8.0 | 0.00 | 0.10 | 0.00 | 73 | 1013.3 |
| 20260509142012 | 65 | 272 | 4.0 | 8.0 | 0.00 | 0.10 | 0.00 | 73 | 1013.2 |
| 20260509141519 | 65 | 297 | 4.0 | 8.0 | 0.00 | 0.10 | 0.00 | 77 | 1013.2 |
| 20260509141008 | 64 | 268 | 4.0 | 8.0 | 0.00 | 0.10 | 0.00 | 76 | 1013.1 |
| 20260509140508 | 64 | 286 | 3.0 | 8.0 | 0.00 | 0.10 | 0.00 | 75 | 1013.1 |
| 20260509140022 | 64 | 291 | 4.0 | 9.0 | 0.00 | 0.10 | 0.00 | 77 | 1013.0 |
| 20260509135506 | 64 | 306 | 4.0 | 10.0 | 0.00 | 0.10 | 0.00 | 77 | 1013.0 |
| 20260509135003 | 64 | 297 | 3.0 | 10.0 | 0.00 | 0.10 | 0.00 | 78 | 1012.9 |
| 20260509134507 | 63 | 287 | 6.0 | 10.0 | 0.00 | 0.10 | 0.00 | 77 | 1013.0 |
| 20260509134003 | 63 | 302 | 4.0 | 8.0 | 0.00 | 0.10 | 0.00 | 77 | 1012.9 |
| 20260509133507 | 63 | 286 | 3.0 | 8.0 | 0.00 | 0.10 | 0.00 | 78 | 1013.0 |
| 20260509133026 | 63 | 304 | 4.0 | 9.0 | 0.00 | 0.10 | 0.00 | 78 | 1012.9 |
| 20260509132503 | 63 | 302 | 5.0 | 11.0 | 0.00 | 0.10 | 0.00 | 78 | 1012.9 |
| 20260509132008 | 63 | 284 | 6.0 | 10.0 | 0.00 | 0.10 | 0.00 | 77 | 1012.8 |
| 20260509131515 | 63 | 287 | 6.0 | 9.0 | 0.00 | 0.10 | 0.00 | 78 | 1012.8 |
| 20260509131008 | 62 | 313 | 3.0 | 7.0 | 0.00 | 0.10 | 0.00 | 80 | 1012.7 |
| 20260509130513 | 62 | 288 | 3.0 | 8.0 | 0.00 | 0.10 | 0.00 | 80 | 1012.8 |
| 20260509130020 | 62 | 269 | 4.0 | 8.0 | 0.00 | 0.10 | 0.00 | 80 | 1012.8 |
| 20260509125507 | 62 | 290 | 4.0 | 8.0 | 0.00 | 0.10 | 0.00 | 80 | 1012.7 |
| 20260509125007 | 61 | 241 | 3.0 | 7.0 | 0.00 | 0.10 | 0.00 | 81 | 1012.5 |
| 20260509124525 | 61 | 289 | 3.0 | 8.0 | 0.00 | 0.10 | 0.00 | 81 | 1012.4 |
| 20260509124007 | 61 | 276 | 3.0 | 8.0 | 0.00 | 0.10 | 0.00 | 81 | 1012.4 |
| 20260509123502 | 60 | 279 | 3.0 | 8.0 | 0.00 | 0.10 | 0.00 | 82 | 1012.3 |
| 20260509123011 | 60 | 302 | 3.0 | 7.0 | 0.00 | 0.10 | 0.00 | 82 | 1012.3 |
| 20260509122504 | 60 | 256 | 4.0 | 7.0 | 0.00 | 0.10 | 0.00 | 82 | 1012.3 |
| 20260509122011 | 60 | 262 | 4.0 | 9.0 | 0.00 | 0.10 | 0.00 | 83 | 1012.3 |
| 20260509121524 | 59 | 259 | 4.0 | 9.0 | 0.00 | 0.10 | 0.00 | 83 | 1012.2 |
| 20260509121006 | 59 | 252 | 3.0 | 7.0 | 0.00 | 0.10 | 0.00 | 83 | 1012.1 |
| 20260509120507 | 59 | 271 | 3.0 | 7.0 | 0.00 | 0.10 | 0.00 | 83 | 1012.0 |
| 20260509120019 | 59 | 257 | 3.0 | 8.0 | 0.00 | 0.10 | 0.00 | 84 | 1011.9 |
| 20260509115507 | 58 | 269 | 3.0 | 8.0 | 0.00 | 0.10 | 0.00 | 84 | 1011.9 |
| 20260509115009 | 58 | 259 | 4.0 | 8.0 | 0.00 | 0.10 | 0.00 | 84 | 1011.9 |
| 20260509114535 | 58 | 236 | 3.0 | 9.0 | 0.00 | 0.10 | 0.00 | 84 | 1011.8 |
| 20260509114010 | 58 | 259 | 4.0 | 10.0 | 0.00 | 0.10 | 0.00 | 84 | 1011.8 |
| 20260509113510 | 58 | 263 | 5.0 | 10.0 | 0.00 | 0.10 | 0.00 | 84 | 1011.7 |
| 20260509113032 | 58 | 228 | 4.0 | 9.0 | 0.00 | 0.10 | 0.00 | 85 | 1011.6 |
| 20260509112509 | 58 | 274 | 5.0 | 10.0 | 0.00 | 0.10 | 0.00 | 85 | 1011.5 |
| 20260509112005 | 58 | 293 | 4.0 | 10.0 | 0.00 | 0.10 | 0.00 | 85 | 1011.5 |
| 20260509111512 | 57 | 257 | 5.0 | 8.0 | 0.00 | 0.10 | 0.00 | 86 | 1011.4 |
| 20260509111004 | 57 | 261 | 5.0 | 9.0 | 0.00 | 0.10 | 0.00 | 86 | 1011.5 |
| 20260509110507 | 57 | 225 | 6.0 | 9.0 | 0.00 | 0.10 | 0.00 | 87 | 1011.4 |
| 20260509110017 | 57 | 233 | 5.0 | 8.0 | 0.00 | 0.10 | 0.00 | 87 | 1011.3 |
| 20260509105509 | 56 | 238 | 3.0 | 7.0 | 0.00 | 0.10 | 0.00 | 87 | 1011.2 |
| 20260509105007 | 56 | 250 | 4.0 | 7.0 | 0.00 | 0.10 | 0.00 | 87 | 1011.2 |
| 20260509104537 | 56 | 244 | 4.0 | 6.0 | 0.00 | 0.10 | 0.00 | 87 | 1011.2 |
| 20260509104008 | 56 | 196 | 3.0 | 10.0 | 0.00 | 0.10 | 0.00 | 87 | 1011.2 |
| 20260509103506 | 56 | 265 | 3.0 | 10.0 | 0.00 | 0.10 | 0.00 | 86 | 1011.1 |
| 20260509103025 | 56 | 252 | 3.0 | 7.0 | 0.00 | 0.10 | 0.00 | 86 | 1011.1 |
| 20260509102507 | 56 | 257 | 2.0 | 6.0 | 0.00 | 0.10 | 0.00 | 86 | 1011.1 |
| 20260509102010 | 56 | 257 | 4.0 | 6.0 | 0.00 | 0.10 | 0.00 | 87 | 1011.1 |
| 20260509101533 | 56 | 255 | 3.0 | 6.0 | 0.00 | 0.10 | 0.00 | 86 | 1011.1 |
| 20260509101010 | 55 | 294 | 2.0 | 7.0 | 0.00 | 0.10 | 0.00 | 87 | 1011.1 |
| 20260509100503 | 55 | 270 | 3.0 | 7.0 | 0.00 | 0.10 | 0.00 | 87 | 1011.2 |
| 20260509100014 | 55 | 271 | 3.0 | 7.0 | 0.00 | 0.10 | 0.00 | 86 | 1011.2 |
| 20260509095505 | 55 | 246 | 3.0 | 7.0 | 0.00 | 0.10 | 0.00 | 86 | 1011.2 |
| 20260509095004 | 55 | 254 | 2.0 | 4.0 | 0.00 | 0.10 | 0.00 | 86 | 1011.3 |
| 20260509094532 | 55 | 262 | 2.0 | 4.0 | 0.00 | 0.10 | 0.00 | 86 | 1011.3 |
| 20260509094008 | 55 | 252 | 2.0 | 4.0 | 0.00 | 0.10 | 0.00 | 86 | 1011.3 |
| 20260509093507 | 55 | 245 | 2.0 | 4.0 | 0.00 | 0.10 | 0.00 | 86 | 1011.4 |
| 20260509093023 | 55 | 277 | 2.0 | 4.0 | 0.00 | 0.10 | 0.00 | 85 | 1011.5 |
| 20260509092510 | 55 | 265 | 2.0 | 4.0 | 0.00 | 0.10 | 0.00 | 85 | 1011.5 |
| 20260509092008 | 55 | 281 | 2.0 | 3.0 | 0.00 | 0.10 | 0.00 | 85 | 1011.5 |
| 20260509091536 | 55 | 265 | 2.0 | 4.0 | 0.00 | 0.10 | 0.00 | 85 | 1011.5 |
| 20260509091010 | 55 | 266 | 2.0 | 4.0 | 0.00 | 0.10 | 0.00 | 85 | 1011.6 |
| 20260509090510 | 55 | 269 | 2.0 | 6.0 | 0.00 | 0.10 | 0.00 | 84 | 1011.6 |
| 20260509090034 | 55 | 272 | 3.0 | 6.0 | 0.00 | 0.10 | 0.00 | 84 | 1011.6 |
| 20260509085509 | 55 | 277 | 2.0 | 6.0 | 0.00 | 0.10 | 0.00 | 84 | 1011.7 |
| 20260509085008 | 56 | 273 | 3.0 | 4.0 | 0.00 | 0.10 | 0.00 | 84 | 1011.7 |
| 20260509084522 | 56 | 273 | 2.0 | 5.0 | 0.00 | 0.10 | 0.00 | 84 | 1011.6 |
| 20260509084009 | 56 | 259 | 2.0 | 7.0 | 0.00 | 0.10 | 0.00 | 84 | 1011.7 |
| 20260509083502 | 56 | 288 | 3.0 | 8.0 | 0.00 | 0.10 | 0.00 | 84 | 1011.7 |
| 20260509083007 | 55 | 246 | 4.0 | 8.0 | 0.00 | 0.10 | 0.00 | 84 | 1011.7 |
| 20260509082503 | 56 | 265 | 3.0 | 8.0 | 0.00 | 0.10 | 0.00 | 84 | 1011.7 |
| 20260509082005 | 55 | 254 | 3.0 | 8.0 | 0.00 | 0.10 | 0.00 | 85 | 1011.7 |
| 20260509081506 | 55 | 244 | 5.0 | 8.0 | 0.00 | 0.10 | 0.00 | 85 | 1011.7 |
| 20260509081005 | 55 | 267 | 4.0 | 8.0 | 0.00 | 0.10 | 0.00 | 85 | 1011.7 |
| 20260509080503 | 55 | 258 | 4.0 | 8.0 | 0.00 | 0.10 | 0.00 | 85 | 1011.8 |
| 20260509080011 | 55 | 273 | 3.0 | 9.0 | 0.00 | 0.10 | 0.00 | 85 | 1011.8 |
| 20260509075503 | 55 | 263 | 4.0 | 9.0 | 0.00 | 0.10 | 0.00 | 85 | 1011.8 |
| 20260509075005 | 55 | 253 | 3.0 | 7.0 | 0.00 | 0.10 | 0.00 | 84 | 1011.8 |
| 20260509074520 | 55 | 258 | 4.0 | 7.0 | 0.00 | 0.10 | 0.00 | 84 | 1011.7 |
| 20260509074006 | 55 | 266 | 3.0 | 8.0 | 0.00 | 0.10 | 0.00 | 84 | 1011.7 |
| 20260509073506 | 55 | 261 | 4.0 | 8.0 | 0.00 | 0.10 | 0.00 | 84 | 1011.7 |
| 20260509073021 | 55 | 253 | 4.0 | 8.0 | 0.00 | 0.10 | 0.00 | 84 | 1011.7 |
| 20260509072506 | 55 | 262 | 4.0 | 8.0 | 0.00 | 0.10 | 0.00 | 84 | 1011.7 |
| 20260509072003 | 55 | 277 | 4.0 | 10.0 | 0.00 | 0.10 | 0.00 | 85 | 1011.6 |
| 20260509071504 | 55 | 275 | 5.0 | 10.0 | 0.00 | 0.10 | 0.00 | 85 | 1011.6 |
| 20260509071004 | 55 | 265 | 3.0 | 8.0 | 0.00 | 0.10 | 0.00 | 85 | 1011.7 |
| 20260509070503 | 55 | 275 | 3.0 | 7.0 | 0.00 | 0.10 | 0.00 | 85 | 1011.8 |
| 20260509070012 | 55 | 289 | 3.0 | 7.0 | 0.00 | 0.10 | 0.00 | 85 | 1011.7 |
| 20260509065502 | 54 | 292 | 3.0 | 7.0 | 0.00 | 0.10 | 0.00 | 86 | 1011.8 |
| 20260509065002 | 54 | 261 | 3.0 | 7.0 | 0.00 | 0.10 | 0.00 | 86 | 1011.7 |
| 20260509064513 | 54 | 263 | 2.0 | 6.0 | 0.00 | 0.10 | 0.00 | 86 | 1011.7 |
| 20260509064008 | 54 | 249 | 2.0 | 6.0 | 0.00 | 0.10 | 0.00 | 86 | 1011.7 |
| 20260509063505 | 54 | 275 | 2.0 | 6.0 | 0.00 | 0.10 | 0.00 | 86 | 1011.7 |
| 20260509063030 | 54 | 259 | 2.0 | 4.0 | 0.00 | 0.10 | 0.00 | 86 | 1011.7 |
| 20260509062508 | 55 | 287 | 2.0 | 6.0 | 0.00 | 0.10 | 0.00 | 85 | 1011.7 |
| 20260509062010 | 55 | 263 | 2.0 | 6.0 | 0.00 | 0.10 | 0.00 | 85 | 1011.7 |
| 20260509061523 | 55 | 271 | 3.0 | 7.0 | 0.00 | 0.10 | 0.00 | 85 | 1011.8 |
| 20260509061012 | 55 | 265 | 2.0 | 7.0 | 0.00 | 0.10 | 0.00 | 85 | 1011.8 |
| 20260509060503 | 55 | 285 | 3.0 | 7.0 | 0.00 | 0.10 | 0.00 | 84 | 1011.9 |
| 20260509060007 | 55 | 284 | 2.0 | 6.0 | 0.00 | 0.10 | 0.00 | 84 | 1012.0 |
| 20260509055503 | 56 | 288 | 3.0 | 9.0 | 0.00 | 0.10 | 0.00 | 84 | 1011.9 |
| 20260509055002 | 56 | 275 | 4.0 | 12.0 | 0.00 | 0.10 | 0.00 | 83 | 1012.0 |
| 20260509054511 | 56 | 309 | 5.0 | 12.0 | 0.00 | 0.10 | 0.00 | 83 | 1012.0 |
| 20260509054006 | 56 | 294 | 4.0 | 9.0 | 0.00 | 0.10 | 0.00 | 82 | 1011.9 |
| 20260509053507 | 56 | 318 | 3.0 | 8.0 | 0.00 | 0.10 | 0.00 | 81 | 1011.9 |
| 20260509053016 | 57 | 337 | 4.0 | 8.0 | 0.00 | 0.10 | 0.00 | 80 | 1012.0 |
| 20260509052507 | 57 | 305 | 2.0 | 6.0 | 0.00 | 0.10 | 0.00 | 79 | 1011.9 |
| 20260509052007 | 57 | 315 | 3.0 | 8.0 | 0.00 | 0.10 | 0.00 | 79 | 1011.9 |
| 20260509051519 | 57 | 352 | 2.0 | 8.0 | 0.00 | 0.10 | 0.00 | 79 | 1011.8 |
| 20260509051006 | 57 | 229 | 4.0 | 7.0 | 0.00 | 0.10 | 0.00 | 79 | 1011.6 |
| 20260509050508 | 57 | 166 | 3.0 | 9.0 | 0.00 | 0.10 | 0.00 | 79 | 1011.6 |
| 20260509050026 | 57 | 205 | 4.0 | 10.0 | 0.00 | 0.10 | 0.00 | 80 | 1011.6 |
| 20260509045507 | 57 | 214 | 4.0 | 11.0 | 0.00 | 0.10 | 0.10 | 80 | 1011.6 |
| 20260509045003 | 57 | 236 | 6.0 | 11.0 | 0.00 | 0.10 | 0.10 | 81 | 1011.5 |